Location: Keppel Henge
(44.7900°N, 80.9447°W)
Time: 00:58:49
(UTC-04:00)

Vanguard 2 - All Passes

Search period start: 21 June 2018 00:00
Search period end: 01 July 2018 00:00
Orbit: 553 x 2939 km, 32.9° (Epoch: 20 June)

Date Brightness Start Highest point End Pass type
(mag) Time Alt. Az. Time Alt. Az. Time Alt. Az.
21 Jun - 03:56:06 10° S 03:58:39 12° SSE 04:00:52 10° SE visible
21 Jun - 06:03:00 10° SW 06:06:32 18° S 06:09:30 10° SE daylight
21 Jun - 08:11:48 10° SW 08:13:59 14° SSW 08:16:07 10° SSE daylight
22 Jun - 04:12:29 10° SSW 04:16:35 16° S 04:19:50 10° SE visible
22 Jun - 06:20:41 10° SW 06:24:23 19° S 06:27:27 10° SE daylight
22 Jun - 08:30:25 10° SW 08:31:46 11° SSW 08:33:04 10° S daylight
23 Jun - 02:23:51 10° S 02:26:06 11° SSE 02:28:08 10° SE visible
23 Jun - 04:29:35 10° SW 04:34:29 20° S 04:38:13 10° SE visible
23 Jun - 06:38:35 10° SW 06:42:13 19° S 06:45:15 10° SE daylight
24 Jun - 02:39:07 10° SSW 02:44:04 16° SSE 02:48:00 10° SE visible
24 Jun - 04:47:02 10° SW 04:52:24 23° S 04:56:21 10° SE visible
24 Jun - 06:56:38 10° SW 07:00:00 18° SSW 07:02:51 10° SSE daylight
25 Jun - 02:55:41 10° SSW 03:02:03 20° SSE 03:06:44 10° ESE visible
25 Jun - 05:04:44 10° SW 05:10:16 25° S 05:14:19 10° SE visible
25 Jun - 07:14:54 10° SW 07:17:44 15° SSW 07:20:13 10° SSE daylight
26 Jun - 01:06:05 10° S 01:11:06 14° SSE 01:15:16 10° SE visible
26 Jun - 03:12:47 10° SW 03:20:00 25° S 03:25:04 10° ESE visible
26 Jun - 05:22:35 10° WSW 05:28:07 25° S 05:32:09 10° SE daylight
26 Jun - 07:33:38 10° SW 07:35:26 12° SSW 07:37:05 10° S daylight
27 Jun - 01:21:43 10° SSW 01:29:06 19° SSE 01:34:40 10° ESE visible
27 Jun - 03:30:12 10° SW 03:37:57 28° S 03:43:11 10° ESE visible
27 Jun - 05:40:35 10° WSW 05:45:56 24° SSW 05:49:52 10° SE daylight
27 Jun - 23:35:25 10° SSE 23:37:39 11° SSE 23:39:46 10° SE night (unlit)
28 Jun - 01:38:15 10° SSW 01:47:05 24° SSE 01:53:20 10° ESE visible
28 Jun - 03:47:53 10° WSW 03:55:52 31° S 04:01:10 10° ESE visible
28 Jun - 05:58:43 10° WSW 06:03:41 22° SSW 06:07:25 10° SSE daylight
28 Jun - 23:48:29 10° S 23:55:37 16° SSE 00:01:25 10° ESE visible
29 Jun - 01:55:16 10° SW 02:05:03 29° SSE 02:11:40 10° ESE visible
29 Jun - 04:05:43 10° WSW 04:13:45 32° S 04:19:03 10° ESE visible
29 Jun - 06:17:03 10° WSW 06:21:23 18° SSW 06:24:46 10° SSE daylight
30 Jun - 00:04:03 10° SSW 00:13:34 21° SSE 00:20:47 10° ESE visible
30 Jun - 02:12:38 10° SW 02:23:01 33° S 02:29:49 10° ESE visible
30 Jun - 04:23:41 10° WSW 04:31:36 32° S 04:36:50 10° SE visible
30 Jun - 06:35:41 10° WSW 06:38:59 15° SSW 06:41:44 10° S daylight
30 Jun - 22:18:09 10° SSE 22:21:43 11° SE 22:25:03 10° SE visible
